• In Uzbekistan
  • List of Countries
  • For 7 days
  • Water Temperature
  • Satellite Maps
  • Weather Map
  • Weather Widgets
  • user-avatar
    Login

    Hourly Weather Tbilisi

    Today, 20 November, Monday

    Time Temperature Precipitation Wind Pressure Humidity
    00:00 +10°C° 0.1 mm 1 mps 700 mmHg 47%
    01:00 +10°C° 0.2 mm 1 mps 700 mmHg 50%
    02:00 +10°C° 0.2 mm 1 mps 700 mmHg 53%
    03:00 +9°C° 0.2 mm 2 mps 700 mmHg 56%
    04:00 +9°C° 0.1 mm 1 mps 700 mmHg 58%
    05:00 +9°C° 0.1 mm 1 mps 700 mmHg 60%
    06:00 +9°C° 0.1 mm 1 mps 700 mmHg 62%
    07:00 +10°C° 0 mm 1 mps 700 mmHg 58%
    08:00 +11°C° 0 mm 1 mps 700 mmHg 55%
    09:00 +12°C° 0 mm 1 mps 700 mmHg 52%
    10:00 +13°C° 0 mm 1 mps 700 mmHg 48%
    11:00 +14°C° 0 mm 1 mps 699 mmHg 45%
    12:00 +16°C° 0 mm 2 mps 699 mmHg 41%
    13:00 +16°C° 0 mm 2 mps 699 mmHg 41%
    14:00 +16°C° 0 mm 2 mps 698 mmHg 40%
    15:00 +16°C° 0 mm 2 mps 698 mmHg 40%
    16:00 +15°C° 0 mm 1 mps 698 mmHg 45%
    17:00 +13°C° 0 mm 1 mps 698 mmHg 49%
    18:00 +12°C° 0 mm 1 mps 698 mmHg 54%
    19:00 +11°C° 0 mm 1 mps 698 mmHg 55%
    20:00 +11°C° 0 mm 1 mps 698 mmHg 55%
    21:00 +10°C° 0 mm 1 mps 698 mmHg 56%
    22:00 +10°C° 0 mm 1 mps 698 mmHg 57%
    23:00 +10°C° 0 mm 1 mps 698 mmHg 58%

    Tomorrow, 21 November, Tuesday

    Time Temperature Precipitation Wind Pressure Humidity
    00:00 +9°C° 0 mm 1 mps 697 mmHg 58%
    01:00 +9°C° 0 mm 1 mps 697 mmHg 58%
    02:00 +9°C° 0 mm 1 mps 697 mmHg 58%
    03:00 +9°C° 0 mm 1 mps 697 mmHg 58%
    04:00 +9°C° 0 mm 1 mps 696 mmHg 59%
    05:00 +9°C° 0 mm 1 mps 696 mmHg 60%
    06:00 +9°C° 0 mm 1 mps 696 mmHg 60%
    07:00 +9°C° 0.3 mm 1 mps 696 mmHg 59%
    08:00 +10°C° 0.3 mm 1 mps 696 mmHg 58%
    09:00 +11°C° 0.3 mm 1 mps 695 mmHg 57%
    10:00 +12°C° 0.1 mm 2 mps 695 mmHg 54%
    11:00 +13°C° 0.1 mm 2 mps 695 mmHg 50%
    12:00 +14°C° 0.1 mm 2 mps 694 mmHg 47%
    13:00 +14°C° 0 mm 2 mps 694 mmHg 47%
    14:00 +14°C° 0 mm 1 mps 693 mmHg 47%
    15:00 +14°C° 0 mm 1 mps 693 mmHg 47%
    16:00 +13°C° 0 mm 1 mps 693 mmHg 50%
    17:00 +12°C° 0 mm 1 mps 693 mmHg 54%
    18:00 +10°C° 0 mm 1 mps 693 mmHg 58%
    19:00 +10°C° 0 mm 1 mps 693 mmHg 58%
    20:00 +10°C° 0 mm 1 mps 693 mmHg 58%
    21:00 +10°C° 0 mm 1 mps 693 mmHg 58%
    22:00 +10°C° 0.1 mm 1 mps 693 mmHg 59%
    23:00 +9°C° 0.1 mm 2 mps 693 mmHg 59%

    Day after tomorrow, 22 November, Wednesday

    Time Temperature Precipitation Wind Pressure Humidity
    00:00 +8°C° 0.1 mm 2 mps 693 mmHg 59%
    01:00 +8°C° 0.3 mm 3 mps 693 mmHg 63%
    02:00 +7°C° 0.3 mm 4 mps 693 mmHg 66%
    03:00 +6°C° 0.3 mm 5 mps 694 mmHg 69%
    04:00 +6°C° 0.2 mm 5 mps 694 mmHg 70%
    05:00 +5°C° 0.2 mm 4 mps 694 mmHg 71%
    06:00 +5°C° 0.2 mm 3 mps 694 mmHg 71%
    07:00 +5°C° 0.1 mm 4 mps 695 mmHg 69%
    08:00 +5°C° 0.1 mm 4 mps 695 mmHg 67%
    09:00 +5°C° 0.1 mm 5 mps 696 mmHg 65%
    10:00 +6°C° 0.1 mm 5 mps 696 mmHg 63%
    11:00 +5°C° 0.1 mm 6 mps 696 mmHg 60%
    12:00 +5°C° 0.1 mm 6 mps 696 mmHg 57%
    13:00 +5°C° 0 mm 6 mps 696 mmHg 57%
    14:00 +5°C° 0 mm 6 mps 696 mmHg 56%
    15:00 +5°C° 0 mm 6 mps 696 mmHg 55%
    16:00 +5°C° 0 mm 5 mps 697 mmHg 58%
    17:00 +4°C° 0 mm 4 mps 697 mmHg 61%
    18:00 +3°C° 0 mm 3 mps 697 mmHg 64%
    19:00 +3°C° 0 mm 3 mps 698 mmHg 64%
    20:00 +3°C° 0 mm 3 mps 698 mmHg 65%
    21:00 +3°C° 0 mm 2 mps 698 mmHg 66%
    22:00 +3°C° 0 mm 2 mps 698 mmHg 68%
    23:00 +3°C° 0 mm 2 mps 698 mmHg 69%

    23 November, Thursday

    Time Temperature Precipitation Wind Pressure Humidity
    00:00 +4°C° 0 mm 1 mps 698 mmHg 70%
    01:00 +3°C° 0 mm 1 mps 698 mmHg 71%
    02:00 +3°C° 0 mm 1 mps 698 mmHg 72%
    03:00 +3°C° 0 mm 1 mps 698 mmHg 72%
    04:00 +2°C° 0 mm 1 mps 698 mmHg 71%
    05:00 +2°C° 0 mm 1 mps 698 mmHg 70%
    06:00 +2°C° 0 mm 1 mps 698 mmHg 69%
    07:00 +3°C° 0 mm 1 mps 699 mmHg 66%
    08:00 +3°C° 0 mm 1 mps 699 mmHg 62%
    09:00 +4°C° 0 mm 1 mps 700 mmHg 59%
    10:00 +4°C° 0.1 mm 1 mps 699 mmHg 58%
    11:00 +5°C° 0.1 mm 1 mps 699 mmHg 58%
    12:00 +5°C° 0.1 mm 1 mps 699 mmHg 57%
    13:00 +5°C° 0 mm 1 mps 699 mmHg 57%
    14:00 +5°C° 0 mm 1 mps 699 mmHg 58%
    15:00 +5°C° 0 mm 1 mps 699 mmHg 58%
    16:00 +5°C° 0 mm 1 mps 700 mmHg 62%
    17:00 +4°C° 0 mm 1 mps 700 mmHg 65%
    18:00 +4°C° 0 mm 1 mps 700 mmHg 69%
    19:00 +3°C° 0.1 mm 1 mps 701 mmHg 70%
    20:00 +2°C° 0.1 mm 2 mps 701 mmHg 70%
    21:00 +2°C° 0.1 mm 2 mps 702 mmHg 71%
    22:00 +1°C° 0 mm 2 mps 702 mmHg 71%
    23:00 +1°C° 0 mm 2 mps 702 mmHg 71%

    24 November, Friday

    Time Temperature Precipitation Wind Pressure Humidity
    00:00 -1°C° 0 mm 2 mps 702 mmHg 71%
    01:00 -1°C° 0 mm 2 mps 702 mmHg 70%
    02:00 -1°C° 0 mm 2 mps 702 mmHg 70%
    03:00 -2°C° 0 mm 2 mps 702 mmHg 70%
    04:00 0°C° 0 mm 1 mps 702 mmHg 69%
    05:00 0°C° 0 mm 1 mps 702 mmHg 69%
    06:00 0°C° 0 mm 1 mps 702 mmHg 69%
    07:00 0°C° 0 mm 1 mps 703 mmHg 65%
    08:00 -1°C° 0 mm 2 mps 703 mmHg 60%
    09:00 +1°C° 0 mm 2 mps 703 mmHg 56%
    10:00 +2°C° 0 mm 2 mps 703 mmHg 52%
    11:00 +3°C° 0 mm 2 mps 703 mmHg 48%
    12:00 +4°C° 0 mm 2 mps 703 mmHg 44%
    13:00 +3°C° 0 mm 2 mps 703 mmHg 45%
    14:00 +3°C° 0 mm 2 mps 703 mmHg 46%
    15:00 +3°C° 0 mm 2 mps 703 mmHg 47%
    16:00 +3°C° 0 mm 1 mps 703 mmHg 53%
    17:00 +2°C° 0 mm 1 mps 703 mmHg 58%
    18:00 +1°C° 0 mm 1 mps 704 mmHg 63%
    19:00 +1°C° 0 mm 1 mps 704 mmHg 65%
    20:00 +1°C° 0 mm 1 mps 704 mmHg 67%
    21:00 0°C° 0 mm 1 mps 704 mmHg 70%
    22:00 0°C° 0 mm 1 mps 705 mmHg 71%
    23:00 0°C° 0 mm 1 mps 705 mmHg 72%

    25 November, Saturday

    Time Temperature Precipitation Wind Pressure Humidity
    00:00 0°C° 0 mm 1 mps 705 mmHg 73%
    01:00 -1°C° 0 mm 1 mps 704 mmHg 74%
    02:00 -1°C° 0 mm 1 mps 704 mmHg 76%
    03:00 -1°C° 0 mm 1 mps 704 mmHg 77%
    04:00 -1°C° 0.1 mm 1 mps 704 mmHg 77%
    05:00 -1°C° 0.1 mm 1 mps 704 mmHg 77%
    06:00 -1°C° 0.1 mm 1 mps 704 mmHg 78%
    07:00 -1°C° 0.1 mm 1 mps 704 mmHg 75%
    08:00 0°C° 0.1 mm 1 mps 704 mmHg 72%
    09:00 0°C° 0.1 mm 1 mps 704 mmHg 70%
    10:00 +1°C° 0.1 mm 1 mps 704 mmHg 68%
    11:00 +1°C° 0.1 mm 1 mps 704 mmHg 66%
    12:00 +1°C° 0.1 mm 1 mps 703 mmHg 64%
    13:00 +2°C° 0.1 mm 1 mps 704 mmHg 65%
    14:00 +2°C° 0.1 mm 1 mps 704 mmHg 65%
    15:00 +2°C° 0.1 mm 1 mps 704 mmHg 66%
    16:00 +1°C° 0 mm 1 mps 704 mmHg 70%
    17:00 0°C° 0 mm 1 mps 705 mmHg 74%
    18:00 0°C° 0 mm 1 mps 705 mmHg 78%
    19:00 0°C° 0.1 mm 1 mps 706 mmHg 79%
    20:00 0°C° 0.1 mm 1 mps 706 mmHg 80%
    21:00 0°C° 0.1 mm 1 mps 707 mmHg 81%
    22:00 0°C° 0.1 mm 1 mps 707 mmHg 81%
    23:00 0°C° 0.1 mm 1 mps 707 mmHg 81%
    Show more